RH
17 28 30 22 18 15 12 9 9 8 6 5 7 7 5 4 3 4 5 6 6 7 11 14 16 17 19 18 20 25 38 48 52 57 57 54 54 54 55 52 50 52 56 66
22 26 19 17 15 15 15 14 12 8 6 7 7 8 6 4 4 4 4 5 5 5 6 8 14 18 19 20 22 26 31 45 52 53 50 49 48 49 50 52 50 53 56 62
26 15 15 17 16 18 16 18 15 12 8 9 10 12 9 5 4 4 4 4 5 6 6 6 7 12 16 20 23 25 31 40 50 49 50 47 47 46 47 49 52 54 57 62
26 16 11 15 18 16 20 15 16 16 14 14 11 17 10 7 6 5 6 6 6 6 6 6 6 7 8 11 17 23 27 34 45 54 48 48 47 46 46 49 50 54 59 63
30 22 15 13 15 15 18 16 18 20 20 20 17 17 13 8 6 6 6 6 6 6 6 6 6 6 7 8 12 17 21 26 34 47 57 51 52 49 46 49 51 54 58 64
26 23 17 14 11 11 14 17 19 21 24 30 22 20 16 11 8 7 5 5 6 5 5 5 6 6 6 6 7 14 21 21 22 36 53 58 53 53 48 47 50 54 59 64
21 21 24 20 25 15 14 22 30 32 36 40 19 21 18 10 8 7 7 5 5 6 6 6 6 6 6 6 8 11 19 23 24 28 43 60 58 56 55 48 49 53 56 62
14 16 13 18 24 23 20 21 29 35 30 25 18 22 15 10 9 8 8 8 8 8 8 8 8 7 6 7 8 12 17 24 27 28 36 51 64 59 59 54 49 51 53 58
23 16 7 5 7 20 24 22 16 24 20 22 14 13 12 10 9 9 9 9 9 9 8 8 9 9 10 10 10 14 16 23 24 27 32 46 57 64 58 56 54 50 53 55
45 44 18 14 12 12 15 15 25 24 35 34 20 17 13 12 11 10 10 11 10 10 9 8 8 9 11 12 12 18 24 24 22 24 32 38 52 57 61 57 55 54 53 58
46 53 31 18 20 25 21 23 21 21 24 31 28 18 11 11 11 12 12 12 13 14 14 10 9 10 12 14 17 20 27 34 35 33 30 38 43 49 54 58 56 56 57 59
85 73 68 33 17 13 16 23 37 33 28 25 28 22 10 10 9 11 10 10 11 11 12 13 13 13 13 14 14 18 23 31 36 40 44 41 41 47 51 56 58 57 58 60
58 63 57 37 25 19 22 20 31 45 44 41 34 27 13 12 12 13 14 13 13 13 13 12 12 15 14 14 16 18 23 28 38 44 43 44 47 49 52 55 59 59 61 63
50 56 56 56 46 48 50 38 26 27 81 65 43 32 20 22 21 18 18 18 17 16 14 16 17 17 16 19 19 20 19 28 38 43 48 48 44 48 55 58 61 64 64 67
56 78 55 46 38 35 44 34 31 33 33 75 57 41 44 32 26 26 22 21 22 22 21 20 20 21 20 20 19 20 20 23 30 42 49 52 50 50 54 61 62 66 68 70
46 73 60 80 49 40 38 32 34 33 32 30 29 31 22 22 23 22 21 20 21 20 20 21 21 19 20 21 21 20 23 27 31 41 51 58 60 55 57 61 66 68 70 74
54 60 66 81 43 41 64 55 39 30 25 26 36 28 21 19 17 18 17 16 18 17 16 18 20 20 20 20 22 22 24 27 29 36 46 57 68 74 69 74 72 74 79 80
58 61 60 83 54 85 37 21 19 20 18 18 19 18 17 16 15 14 13 13 13 14 16 16 16 19 21 20 25 24 25 26 29 32 42 51 65 80 86 84 83 92 92 92
42 55 77 88 68 42 28 22 21 22 22 17 18 17 15 15 16 18 14 13 14 15 18 20 21 21 22 24 27 23 24 26 29 31 38 46 63 72 76 88 94 95 95 99
30 44 70 75 80 71 32 19 17 30 50 31 38 40 39 32 36 24 16 19 19 21 22 23 22 22 23 21 21 20 21 23 25 32 41 49 58 70 77 76 87 99 99 100
45 60 84 72 77 49 24 48 35 42 53 42 36 37 40 48 48 37 34 30 24 24 22 21 21 21 21 20 20 19 20 22 20 23 33 50 55 59 77 85 89 94 99 100
46 54 75 79 84 79 52 57 73 64 37 34 40 37 41 39 37 37 33 30 28 28 26 23 21 21 20 21 21 19 21 22 20 21 26 32 49 62 75 83 96 100 100 100
57 46 86 66 57 51 32 34 39 28 30 38 39 36 37 38 38 36 37 36 33 29 27 25 23 21 20 20 20 19 21 23 22 23 25 30 36 52 68 85 100 100 100 100
32 29 52 61 38 38 33 26 26 34 43 38 34 32 34 39 39 39 37 36 34 30 27 25 24 23 23 20 20 20 19 22 23 22 27 34 40 47 74 99 100 100 100 100
39 33 37 38 32 31 30 33 34 42 53 33 35 37 39 40 41 40 41 41 39 37 36 33 28 27 25 24 22 21 20 21 22 21 26 34 41 55 99 100 100 100 100 98
37 42 51 57 35 38 39 29 28 38 44 42 42 48 50 49 48 44 44 43 43 42 43 42 40 35 30 27 24 23 24 22 22 24 31 41 51 90 100 100 100 100 100 100
Wind_Speed
23 20 22 29 27 25 26 26 27 21 25 23 25 25 24 25 22 22 22 23 24 22 22 28 29 30 30 29 32 32 32 33 32 33 32 31 32 31 31 31 32 32 32 33
23 27 29 27 27 27 29 28 28 25 16 20 21 24 23 25 26 24 21 23 26 24 22 21 30 28 30 30 30 31 33 33 36 33 33 32 31 30 31 30 30 33 33 33
26 29 27 31 29 27 28 28 26 26 17 17 15 21 25 25 23 22 22 22 24 22 19 20 21 28 28 30 29 32 33 33 35 35 31 28 26 26 28 29 31 35 38 38
21 25 31 30 33 28 27 24 23 25 22 19 21 20 25 24 23 22 23 22 22 23 22 23 22 21 26 27 27 30 33 34 35 35 32 34 30 28 32 34 33 32 36 37
22 23 25 32 28 30 28 20 20 22 23 20 25 16 22 22 26 29 28 26 26 23 23 23 21 27 34 32 29 29 29 30 35 38 39 33 34 33 29 29 29 32 32 38
23 25 24 21 27 28 22 23 21 18 17 19 27 24 25 21 21 21 21 22 23 24 23 24 28 33 35 34 31 31 32 33 34 37 41 41 35 35 31 29 30 30 32 33
22 24 21 12 16 18 24 17 14 18 16 19 24 24 24 14 23 24 21 19 16 18 16 18 19 22 29 29 27 25 24 26 30 37 40 42 42 38 37 32 32 28 29 32
19 23 25 16 19 18 23 24 18 21 19 21 27 26 24 27 28 22 16 10 7 12 10 14 18 17 22 24 26 24 23 25 28 32 37 39 41 38 35 35 31 32 30 31
16 19 17 26 27 21 23 21 27 27 26 19 21 20 30 26 22 24 17 14 14 15 18 18 15 16 16 22 18 17 22 26 27 28 31 35 35 36 34 36 34 31 31 28
14 18 16 14 12 18 25 21 19 17 25 29 22 22 12 19 25 22 20 19 19 21 21 16 15 11 15 15 18 17 19 22 22 24 28 32 34 35 35 31 32 32 31 31
13 10 18 16 17 17 15 20 20 19 17 20 21 21 22 20 8 9 5 3 2 5 10 9 6 9 9 10 10 12 14 15 16 18 25 29 31 33 34 34 32 33 33 31
2 6 12 21 20 15 22 16 12 16 24 19 19 19 19 20 21 23 15 17 18 15 13 7 8 13 11 13 13 8 9 11 14 16 19 24 28 30 32 33 34 33 34 34
6 2 8 12 17 17 15 20 15 13 18 22 19 15 18 23 23 19 16 13 12 14 15 15 10 12 10 12 8 9 9 10 11 14 17 21 25 28 31 33 34 34 35 34
5 12 14 14 15 7 14 19 21 17 10 13 18 21 24 22 21 19 18 19 18 15 17 11 15 10 10 9 12 14 13 9 11 13 15 19 22 25 28 28 29 31 33 34
6 11 14 19 21 18 17 19 19 21 21 11 16 18 20 24 21 21 21 22 22 23 21 14 14 14 16 17 19 15 15 15 13 13 14 16 20 22 24 26 28 30 32 33
13 10 14 15 18 19 19 19 19 20 21 23 24 24 21 22 24 21 21 21 21 21 23 23 22 20 17 19 22 18 15 14 12 13 15 15 16 20 22 23 25 27 30 32
19 16 16 21 19 17 11 21 21 21 22 22 21 23 24 25 23 20 19 17 19 18 18 18 20 21 19 21 21 21 17 13 14 14 14 14 13 14 18 15 22 27 27 28
20 19 14 14 16 20 17 19 22 23 22 22 21 23 24 24 24 21 19 21 20 12 15 16 16 15 22 19 12 15 17 15 15 15 14 14 14 14 18 19 17 15 19 19
21 18 12 12 15 22 25 22 20 22 22 19 19 22 20 23 24 23 20 19 20 16 10 10 17 23 24 18 16 18 18 16 16 16 15 14 15 17 17 19 18 21 23 22
11 18 13 12 16 16 15 16 17 12 11 11 16 15 18 20 12 14 21 18 17 14 17 16 23 25 21 19 21 23 20 19 17 15 15 14 14 18 20 21 21 23 24 24
8 7 14 15 14 12 16 16 19 16 8 19 18 16 14 13 12 22 24 23 21 21 22 24 26 24 27 25 24 23 24 22 20 17 14 15 16 18 19 20 22 21 22 24
13 10 7 8 9 16 14 12 5 10 19 17 16 15 17 20 22 24 26 25 24 26 28 31 28 27 28 28 27 25 24 23 20 19 18 18 15 16 17 20 22 24 24 24
12 8 7 8 9 20 15 5 12 18 17 14 15 17 19 22 23 24 24 25 25 27 27 35 31 31 31 29 29 26 25 22 20 18 20 19 18 17 17 18 20 22 24 23
18 17 12 16 9 20 23 23 20 15 13 12 18 22 21 22 23 24 24 25 23 24 25 34 32 25 27 30 30 31 31 24 22 20 19 18 18 18 14 20 24 23 22 21
15 19 21 24 23 21 19 20 19 13 17 21 22 21 22 23 25 23 25 27 25 25 32 34 29 26 31 35 34 33 32 26 25 23 20 18 16 14 11 18 23 25 29 34
17 21 15 17 20 17 19 20 20 20 22 19 21 22 20 22 25 25 25 25 24 23 34 31 34 34 35 36 36 34 34 30 26 22 19 17 13 10 14 20 15 24 23 28
Wind_Direction
215 221 223 226 224 237 251 251 250 239 242 242 211 243 229 237 238 225 219 239 226 213 210 206 208 203 205 207 199 198 196 198 197 200 202 206 207 208 212 215 216 213 211 211
236 222 228 236 235 238 246 248 252 260 254 255 225 243 243 242 228 236 227 228 235 217 216 211 196 209 205 208 207 202 202 198 201 204 207 210 211 211 212 214 218 214 214 212
237 236 223 238 236 236 241 244 246 248 234 248 264 261 251 246 238 238 242 227 241 245 229 217 218 199 206 212 210 213 209 201 204 210 209 215 215 219 216 215 216 216 214 213
247 248 246 223 237 235 238 234 255 259 253 236 215 252 242 232 241 238 239 239 231 239 235 231 232 217 218 220 221 220 216 211 209 208 214 212 211 209 216 212 214 215 215 215
247 234 245 246 237 229 243 244 239 248 256 257 251 259 257 251 232 219 226 229 240 232 230 242 241 238 219 217 217 218 226 229 216 210 211 217 217 217 219 218 218 215 215 215
271 284 244 253 249 252 241 230 236 241 251 241 237 241 249 243 243 247 243 217 224 235 235 231 231 244 246 242 234 214 211 218 228 219 210 214 216 218 218 215 213 213 213 214
251 256 261 215 270 247 239 232 230 225 221 239 233 236 241 242 244 249 251 241 228 230 247 255 239 237 242 244 243 231 208 223 228 226 216 213 216 218 221 221 218 211 210 211
233 246 238 245 232 242 218 229 232 229 229 233 225 245 238 242 263 269 270 271 255 290 211 256 246 256 254 236 228 225 227 234 231 228 224 216 217 221 223 224 225 217 213 212
288 257 255 222 220 230 246 228 231 253 263 263 249 219 231 247 242 242 238 261 259 252 244 258 219 260 251 251 246 236 231 234 232 224 224 221 219 220 224 225 224 226 217 214
306 309 283 301 219 234 233 251 231 227 246 253 251 258 233 219 231 240 252 258 257 254 257 262 228 255 248 249 243 208 219 229 228 227 219 221 222 223 223 226 223 219 218 214
339 294 278 270 251 245 203 230 248 267 232 237 252 246 250 264 253 192 224 172 163 22 334 303 282 299 280 241 238 238 234 241 247 242 229 227 223 225 224 223 223 220 217 213
185 290 297 282 276 249 269 270 294 238 249 252 248 245 254 256 247 252 269 255 255 298 297 270 312 301 283 266 257 255 259 254 261 255 247 243 236 231 225 222 220 219 217 213
340 221 309 297 229 250 265 272 225 261 284 265 261 250 232 253 266 276 281 277 276 279 275 288 282 269 291 284 298 287 279 286 288 282 267 249 242 235 230 225 221 216 213 211
294 257 258 276 291 256 300 303 294 266 248 273 266 286 272 296 298 304 306 311 304 291 268 292 301 285 284 292 305 312 310 303 296 295 286 267 253 242 237 233 227 219 212 209
277 261 256 273 283 289 274 280 279 284 275 243 271 274 286 287 296 290 303 297 295 288 294 274 266 279 294 288 288 293 295 303 303 292 283 273 262 253 244 234 229 219 215 210
299 283 292 283 283 285 288 280 268 272 273 270 276 272 258 264 270 273 278 279 271 274 274 272 277 272 262 276 288 287 293 293 303 289 282 274 267 256 245 241 231 224 217 212
285 280 285 283 296 286 270 252 260 266 267 266 262 261 266 274 277 272 273 282 277 274 277 283 266 275 285 278 275 275 275 282 282 283 277 271 258 249 250 246 232 225 213 206
253 262 275 276 288 270 261 261 259 261 262 260 260 261 262 269 275 276 276 282 279 289 288 290 300 289 282 280 274 278 276 279 278 275 274 266 255 232 236 237 235 217 202 203
226 243 261 257 260 275 274 282 287 284 278 286 284 271 260 260 268 271 275 282 291 302 311 306 296 291 287 281 265 269 274 279 282 283 273 265 244 237 234 213 212 200 197 195
226 219 233 252 265 269 279 288 309 13 292 14 358 343 335 335 307 271 293 327 315 320 298 304 299 290 273 270 271 275 274 277 274 279 286 285 261 243 230 229 212 200 199 194
261 246 230 238 250 265 276 11 320 255 324 331 331 329 329 314 304 317 320 320 314 309 299 293 290 279 272 273 281 274 275 270 275 274 272 268 269 263 239 231 222 208 197 186
285 279 257 241 259 263 22 356 358 304 303 307 316 321 315 309 308 306 305 308 305 302 302 299 291 284 271 267 269 270 269 275 277 275 272 267 260 258 252 231 215 200 186 179
272 271 310 292 291 311 296 334 262 302 309 330 326 318 313 309 305 307 304 303 298 293 289 289 287 283 278 276 263 267 266 269 273 279 280 279 273 259 247 232 191 183 183 176
289 293 271 293 283 313 307 305 315 353 340 311 308 308 306 304 303 304 306 304 299 292 289 288 286 285 284 275 269 265 266 261 264 267 274 280 280 274 240 213 202 187 187 184
278 287 286 284 290 284 294 319 309 325 290 308 319 316 310 304 301 304 306 303 300 297 293 289 283 280 278 278 275 270 268 248 254 262 264 272 273 274 217 213 203 202 204 199
272 272 270 271 280 300 295 298 307 315 318 309 308 310 306 307 307 306 302 303 300 298 294 291 285 278 273 272 271 267 266 261 259 260 256 261 259 240 222 204 206 212 216 212